,,,PA_Meas_PMT16A,,PR_Meas_QMR101_102,,RH_Meas_QMH101,,SR_Meas_QMS101,,TA_Meas_QMH101,,GenWind,,GenWind,
date,time,status,PA,status,PR,status,RH,status,SR,status,TA,status,DirAvg,status,SpdAvg,
2012-09-08, 00:00:04,VALID,1001.91,VALID,0,VALID,87.1303,VALID,0,VALID,24.9308,VALID,181,VALID,1.65937,
2012-09-08, 00:01:04,VALID,1001.87,VALID,0,VALID,87.0997,VALID,0,VALID,24.9093,VALID,171,VALID,1.21719,
2012-09-08, 00:02:04,VALID,1001.85,VALID,0,VALID,87.0463,VALID,0,VALID,24.9093,VALID,171,VALID,1.49922,
2012-09-08, 00:03:04,VALID,1001.85,VALID,0,VALID,86.5123,VALID,0,VALID,24.9093,VALID,186,VALID,1.57148,
2012-09-08, 00:04:04,VALID,1001.8,VALID,0,VALID,86.2223,VALID,0,VALID,24.9698,VALID,157,VALID,1.7457,
2012-09-08, 00:05:04,VALID,1001.81,VALID,0,VALID,86.0774,VALID,0,VALID,24.9484,VALID,166,VALID,1.31719,
2012-09-08, 00:06:04,VALID,1001.76,VALID,0,VALID,85.9095,VALID,0,VALID,24.9308,VALID,170,VALID,1.37578,
2012-09-08, 00:07:04,VALID,1001.75,VALID,0,VALID,85.9019,VALID,0,VALID,24.9289,VALID,157,VALID,1.80156,
2012-09-08, 00:08:04,VALID,1001.71,VALID,0,VALID,85.9095,VALID,0,VALID,24.9289,VALID,170,VALID,1.57461,
2012-09-08, 00:09:04,VALID,1001.68,VALID,0,VALID,85.818,VALID,0,VALID,24.9289,VALID,160,VALID,1.81641,
2012-09-08, 00:10:04,VALID,1001.67,VALID,0,VALID,85.8714,VALID,0,VALID,24.9289,VALID,167,VALID,1.6418,
2012-09-08, 00:11:04,VALID,1001.66,VALID,0,VALID,85.8027,VALID,0,VALID,24.9093,VALID,169,VALID,1.74922,
2012-09-08, 00:12:04,VALID,1001.67,VALID,0,VALID,85.8866,VALID,0,VALID,24.9289,VALID,176,VALID,1.65937,
2012-09-08, 00:13:04,VALID,1001.64,VALID,0,VALID,86.1689,VALID,0,VALID,24.9289,VALID,165,VALID,1.87305,
2012-09-08, 00:14:04,VALID,1001.65,VALID,0,VALID,86.2376,VALID,0,VALID,24.9093,VALID,175,VALID,1.74766,
2012-09-08, 00:15:04,VALID,1001.65,VALID,0,VALID,86.4131,VALID,0,VALID,24.9308,VALID,175,VALID,1.7375,
2012-09-08, 00:16:04,VALID,1001.64,VALID,0,VALID,87.0234,VALID,0,VALID,24.9093,VALID,193,VALID,1.40703,
2012-09-08, 00:17:04,VALID,1001.66,VALID,0,VALID,87.1608,VALID,0,VALID,24.8703,VALID,203,VALID,1.03242,
2012-09-08, 00:18:04,VALID,1001.63,VALID,0,VALID,87.4965,VALID,0,VALID,24.8527,VALID,194,VALID,1.59063,
2012-09-08, 00:19:04,VALID,1001.59,VALID,0,VALID,88.0153,VALID,0,VALID,24.8117,VALID,183,VALID,1.53086,
2012-09-08, 00:20:04,VALID,1001.56,VALID,0,VALID,87.9771,VALID,0,VALID,24.8332,VALID,176,VALID,1.45078,
2012-09-08, 00:21:04,VALID,1001.55,VALID,0,VALID,88.0077,VALID,0,VALID,24.8117,VALID,166,VALID,1.58359,
2012-09-08, 00:22:04,VALID,1001.54,VALID,0,VALID,88.0229,VALID,0,VALID,24.8332,VALID,160,VALID,1.7332,
2012-09-08, 00:23:04,VALID,1001.57,VALID,0,VALID,87.6567,VALID,0,VALID,24.7922,VALID,150,VALID,1.65,
2012-09-08, 00:24:04,VALID,1001.57,VALID,0,VALID,87.4736,VALID,0,VALID,24.7746,VALID,149,VALID,1.57813,
2012-09-08, 00:25:04,VALID,1001.58,VALID,0,VALID,87.3286,VALID,0,VALID,24.7356,VALID,139,VALID,1.43555,
2012-09-08, 00:26:04,VALID,1001.58,VALID,0,VALID,87.4049,VALID,0,VALID,24.6556,VALID,145,VALID,1.16211,
2012-09-08, 00:27:04,VALID,1001.58,VALID,0,VALID,87.3515,VALID,0,VALID,24.6361,VALID,139,VALID,1.37422,
2012-09-08, 00:28:04,VALID,1001.55,VALID,0,VALID,87.5117,VALID,0,VALID,24.6166,VALID,138,VALID,1.40391,
2012-09-08, 00:29:04,VALID,1001.56,VALID,0,VALID,87.5117,VALID,0,VALID,24.6184,VALID,131,VALID,1.3625,
2012-09-08, 00:30:04,VALID,1001.56,VALID,0,VALID,87.4583,VALID,0,VALID,24.558,VALID,128,VALID,1.37227,
2012-09-08, 00:31:04,VALID,1001.54,VALID,0,VALID,87.3744,VALID,0,VALID,24.5599,VALID,129,VALID,1.17734,
2012-09-08, 00:32:04,VALID,1001.58,VALID,0,VALID,87.4965,VALID,0,VALID,24.5404,VALID,116,VALID,1.19219,
2012-09-08, 00:33:04,VALID,1001.55,VALID,0,VALID,87.6491,VALID,0,VALID,24.48,VALID,115,VALID,1.07813,
2012-09-08, 00:34:04,VALID,1001.57,VALID,0,VALID,87.7483,VALID,0,VALID,24.4409,VALID,115,VALID,0.944531,
2012-09-08, 00:35:04,VALID,1001.58,VALID,0,VALID,87.8627,VALID,0,VALID,24.3824,VALID,109,VALID,0.834375,
2012-09-08, 00:36:04,VALID,1001.55,VALID,0,VALID,87.8551,VALID,0,VALID,24.3647,VALID,103,VALID,0.850391,
2012-09-08, 00:37:04,VALID,1001.54,VALID,0,VALID,87.9237,VALID,0,VALID,24.3257,VALID,103,VALID,0.864062,
2012-09-08, 00:38:04,VALID,1001.54,VALID,0,VALID,88.084,VALID,0,VALID,24.3062,VALID,98,VALID,0.942969,
2012-09-08, 00:39:04,VALID,1001.53,VALID,0,VALID,88.1374,VALID,0,VALID,24.3062,VALID,99,VALID,0.734375,
2012-09-08, 00:40:04,VALID,1001.52,VALID,0,VALID,88.29,VALID,0,VALID,24.2653,VALID,99,VALID,0.583203,
2012-09-08, 00:41:04,VALID,1001.5,VALID,0,VALID,88.5036,VALID,0,VALID,24.2653,VALID,99,VALID,0.589063,
2012-09-08, 00:42:04,VALID,1001.46,VALID,0,VALID,88.6943,VALID,0,VALID,24.2671,VALID,99,VALID,0.695313,
2012-09-08, 00:43:04,VALID,1001.42,VALID,0,VALID,88.7859,VALID,0,VALID,24.2458,VALID,122,VALID,1.07813,
2012-09-08, 00:44:04,VALID,1001.42,VALID,0,VALID,88.6333,VALID,0,VALID,24.2458,VALID,95,VALID,0.739844,
2012-09-08, 00:45:04,VALID,1001.42,VALID,0,VALID,88.6333,VALID,0,VALID,24.2067,VALID,92,VALID,1.02031,
2012-09-08, 00:46:04,VALID,1001.41,VALID,0,VALID,88.5494,VALID,0,VALID,24.2263,VALID,110,VALID,1.05977,
2012-09-08, 00:47:04,VALID,1001.38,VALID,0,VALID,88.4807,VALID,0,VALID,24.2263,VALID,92,VALID,1.0125,
2012-09-08, 00:48:04,VALID,1001.36,VALID,0,VALID,88.5799,VALID,0,VALID,24.2263,VALID,91,VALID,1.01758,
2012-09-08, 00:49:04,VALID,1001.38,VALID,0,VALID,88.4426,VALID,0,VALID,24.2458,VALID,96,VALID,1.21289,
2012-09-08, 00:50:04,VALID,1001.36,VALID,0,VALID,88.3357,VALID,0,VALID,24.2458,VALID,89,VALID,0.869922,
2012-09-08, 00:51:04,VALID,1001.35,VALID,0,VALID,88.3586,VALID,0,VALID,24.2263,VALID,90,VALID,0.724219,
2012-09-08, 00:52:04,VALID,1001.36,VALID,0,VALID,88.351,VALID,0,VALID,24.2263,VALID,84,VALID,1.02344,
2012-09-08, 00:53:04,VALID,1001.35,VALID,0,VALID,88.3052,VALID,0,VALID,24.2067,VALID,109,VALID,0.710156,
2012-09-08, 00:54:04,VALID,1001.35,VALID,0,VALID,88.3205,VALID,0,VALID,24.2458,VALID,123,VALID,1.0207,
2012-09-08, 00:55:04,VALID,1001.32,VALID,0,VALID,88.1908,VALID,0,VALID,24.2458,VALID,102,VALID,0.869922,
2012-09-08, 00:56:04,VALID,1001.36,VALID,0,VALID,88.0687,VALID,0,VALID,24.2866,VALID,113,VALID,0.603906,
2012-09-08, 00:57:04,VALID,1001.32,VALID,0,VALID,87.9466,VALID,0,VALID,24.2848,VALID,113,VALID,0.377734,
2012-09-08, 00:58:04,VALID,1001.34,VALID,0,VALID,87.9848,VALID,0,VALID,24.2653,VALID,113,VALID,0.176563,
2012-09-08, 00:59:04,VALID,1001.35,VALID,0,VALID,87.9848,VALID,0,VALID,24.2848,VALID,113,VALID,0.55,
2012-09-08, 01:00:04,VALID,1001.35,VALID,0,VALID,87.878,VALID,0,VALID,24.2848,VALID,113,VALID,0.633203,
2012-09-08, 01:01:04,VALID,1001.35,VALID,0,VALID,87.8246,VALID,0,VALID,24.3043,VALID,113,VALID,0.675781,
2012-09-08, 01:02:04,VALID,1001.35,VALID,0,VALID,87.6872,VALID,0,VALID,24.3257,VALID,106,VALID,0.814844,
2012-09-08, 01:03:04,VALID,1001.36,VALID,0,VALID,87.6949,VALID,0,VALID,24.3238,VALID,105,VALID,0.666797,
2012-09-08, 01:04:04,VALID,1001.33,VALID,0,VALID,87.6033,VALID,0,VALID,24.3238,VALID,105,VALID,0.491016,
2012-09-08, 01:05:04,VALID,1001.26,VALID,0,VALID,87.5804,VALID,0,VALID,24.3433,VALID,141,VALID,1.14766,
2012-09-08, 01:06:04,VALID,1001.27,VALID,0,VALID,87.3057,VALID,0,VALID,24.4019,VALID,140,VALID,0.990625,
2012-09-08, 01:07:04,VALID,1001.22,VALID,0,VALID,87.115,VALID,0.104696,VALID,24.4409,VALID,147,VALID,1.7332,
2012-09-08, 01:08:04,VALID,1001.22,VALID,0,VALID,86.8327,VALID,0.104696,VALID,24.4604,VALID,133,VALID,1.03945,
2012-09-08, 01:09:04,VALID,1001.17,VALID,0,VALID,86.7564,VALID,0,VALID,24.4604,VALID,126,VALID,1.00469,
2012-09-08, 01:10:04,VALID,1001.17,VALID,0,VALID,86.7564,VALID,0,VALID,24.4409,VALID,126,VALID,0.732422,
2012-09-08, 01:11:04,VALID,1001.14,VALID,0,VALID,86.7259,VALID,0,VALID,24.4214,VALID,126,VALID,0.628516,
2012-09-08, 01:12:04,VALID,1001.12,VALID,0,VALID,86.8632,VALID,0,VALID,24.4214,VALID,126,VALID,0.848047,
2012-09-08, 01:13:04,VALID,1001.12,VALID,0,VALID,86.8251,VALID,0.104696,VALID,24.4214,VALID,118,VALID,0.796484,
2012-09-08, 01:14:04,VALID,1001.13,VALID,0,VALID,86.8556,VALID,0,VALID,24.3824,VALID,116,VALID,0.718359,
2012-09-08, 01:15:04,VALID,1001.13,VALID,0,VALID,87.0463,VALID,0,VALID,24.3629,VALID,117,VALID,0.739453,
2012-09-08, 01:16:04,VALID,1001.15,VALID,0,VALID,87.3134,VALID,0,VALID,24.3238,VALID,144,VALID,1.19883,
2012-09-08, 01:17:04,VALID,1001.15,VALID,0,VALID,87.4126,VALID,0,VALID,24.3433,VALID,143,VALID,1.35938,
2012-09-08, 01:18:04,VALID,1001.14,VALID,0,VALID,87.26,VALID,0.104696,VALID,24.3629,VALID,144,VALID,1.03086,
2012-09-08, 01:19:04,VALID,1001.12,VALID,0,VALID,87.1989,VALID,0,VALID,24.3629,VALID,142,VALID,1.11563,
2012-09-08, 01:20:04,VALID,1001.11,VALID,0,VALID,87.1379,VALID,0,VALID,24.3824,VALID,134,VALID,1.07852,
2012-09-08, 01:21:04,VALID,1001.12,VALID,0,VALID,87.0158,VALID,0,VALID,24.3824,VALID,133,VALID,1.01641,
2012-09-08, 01:22:04,VALID,1001.13,VALID,0,VALID,87.0921,VALID,0.104696,VALID,24.3824,VALID,128,VALID,0.748047,
2012-09-08, 01:23:04,VALID,1001.14,VALID,0,VALID,87.0845,VALID,0,VALID,24.3629,VALID,133,VALID,1.09883,
2012-09-08, 01:24:04,VALID,1001.15,VALID,0,VALID,87.1532,VALID,0.104696,VALID,24.3842,VALID,130,VALID,1.10781,
2012-09-08, 01:25:04,VALID,1001.19,VALID,0,VALID,87.0845,VALID,0.104696,VALID,24.3824,VALID,129,VALID,0.888672,
2012-09-08, 01:26:04,VALID,1001.22,VALID,0,VALID,87.0769,VALID,0.104696,VALID,24.3629,VALID,128,VALID,0.570703,
2012-09-08, 01:27:04,VALID,1001.21,VALID,0,VALID,87.2676,VALID,0.104696,VALID,24.3629,VALID,129,VALID,0.493359,
2012-09-08, 01:28:04,VALID,1001.23,VALID,0,VALID,87.3134,VALID,0,VALID,24.3433,VALID,128,VALID,0.111328,
2012-09-08, 01:29:04,VALID,1001.24,VALID,0,VALID,87.3363,VALID,0,VALID,24.3433,VALID,129,VALID,0,
2012-09-08, 01:30:04,VALID,1001.26,VALID,0,VALID,87.4202,VALID,0,VALID,24.3043,VALID,128,VALID,0,
2012-09-08, 01:31:04,VALID,1001.27,VALID,0,VALID,87.5651,VALID,0.104696,VALID,24.2848,VALID,129,VALID,0.0808594,
2012-09-08, 01:32:04,VALID,1001.25,VALID,0,VALID,87.9009,VALID,0.104696,VALID,24.2848,VALID,131,VALID,0.906641,
2012-09-08, 01:33:04,VALID,1001.25,VALID,0,VALID,87.8246,VALID,0,VALID,24.3043,VALID,119,VALID,0.880469,
2012-09-08, 01:34:04,VALID,1001.24,VALID,0,VALID,87.6262,VALID,0.104696,VALID,24.3433,VALID,117,VALID,0.799609,
2012-09-08, 01:35:04,VALID,1001.25,VALID,0,VALID,87.3744,VALID,0,VALID,24.3647,VALID,104,VALID,0.86875,
2012-09-08, 01:36:04,VALID,1001.26,VALID,0,VALID,87.466,VALID,0,VALID,24.3647,VALID,115,VALID,0.821484,
2012-09-08, 01:37:04,VALID,1001.26,VALID,0,VALID,87.4736,VALID,0,VALID,24.3629,VALID,115,VALID,0.811328,
2012-09-08, 01:38:04,VALID,1001.28,VALID,0,VALID,87.5499,VALID,0,VALID,24.3647,VALID,115,VALID,0.869922,
2012-09-08, 01:39:04,VALID,1001.26,VALID,0,VALID,87.7025,VALID,0.104696,VALID,24.3629,VALID,115,VALID,0.925781,
2012-09-08, 01:40:04,VALID,1001.25,VALID,0,VALID,87.794,VALID,0,VALID,24.3647,VALID,115,VALID,0.789063,
2012-09-08, 01:41:04,VALID,1001.21,VALID,0,VALID,87.8551,VALID,0,VALID,24.3433,VALID,115,VALID,0.967188,
2012-09-08, 01:42:04,VALID,1001.2,VALID,0,VALID,87.5804,VALID,0.104696,VALID,24.3238,VALID,99,VALID,0.948438,
2012-09-08, 01:43:04,VALID,1001.14,VALID,0,VALID,87.8551,VALID,0,VALID,24.2263,VALID,99,VALID,0.883203,
2012-09-08, 01:44:04,VALID,1001.12,VALID,0,VALID,88.3357,VALID,0,VALID,24.1872,VALID,89,VALID,0.773047,
2012-09-08, 01:45:04,VALID,1001.13,VALID,0,VALID,88.7401,VALID,0,VALID,24.1482,VALID,78,VALID,0.548828,
2012-09-08, 01:46:04,VALID,1001.07,VALID,0,VALID,88.9766,VALID,0,VALID,24.1092,VALID,78,VALID,0.432031,
2012-09-08, 01:47:04,VALID,1001.07,VALID,0,VALID,89.4115,VALID,0,VALID,24.0701,VALID,78,VALID,0.540234,
2012-09-08, 01:48:04,VALID,1001.06,VALID,0,VALID,89.4649,VALID,0.104696,VALID,24.0506,VALID,78,VALID,0.392188,
2012-09-08, 01:49:04,VALID,1001.02,VALID,0,VALID,89.6862,VALID,0,VALID,24.0311,VALID,78,VALID,0.157031,
2012-09-08, 01:50:04,VALID,1001.02,VALID,0,VALID,89.6938,VALID,0,VALID,23.9921,VALID,78,VALID,0.123438,
2012-09-08, 01:51:04,VALID,1001,VALID,0,VALID,89.9151,VALID,0.104696,VALID,23.9921,VALID,78,VALID,0.0476562,
2012-09-08, 01:52:04,VALID,1000.99,VALID,0,VALID,90.0677,VALID,0,VALID,23.9744,VALID,78,VALID,0,
2012-09-08, 01:53:04,VALID,1000.96,VALID,0,VALID,90.2813,VALID,0,VALID,23.9549,VALID,78,VALID,0.338672,
2012-09-08, 01:54:04,VALID,1000.94,VALID,0,VALID,90.4797,VALID,0,VALID,23.9549,VALID,78,VALID,0.493359,
2012-09-08, 01:55:04,VALID,1000.91,VALID,0,VALID,90.5331,VALID,0,VALID,23.9354,VALID,118,VALID,0.704297,
2012-09-08, 01:56:04,VALID,1000.93,VALID,0,VALID,90.35,VALID,0,VALID,23.9354,VALID,118,VALID,0.727734,
2012-09-08, 01:57:04,VALID,1000.92,VALID,0,VALID,90.1134,VALID,0,VALID,23.9336,VALID,136,VALID,1.02148,
2012-09-08, 01:58:04,VALID,1000.89,VALID,0,VALID,89.8006,VALID,0,VALID,23.9726,VALID,137,VALID,1.51172,
2012-09-08, 01:59:04,VALID,1000.86,VALID,0,VALID,89.4497,VALID,0,VALID,24.0506,VALID,140,VALID,1.42969,
2012-09-08, 02:00:04,VALID,1000.87,VALID,0,VALID,89.0911,VALID,0,VALID,24.0701,VALID,139,VALID,1.16602,
2012-09-08, 02:01:04,VALID,1000.84,VALID,0,VALID,88.908,VALID,0,VALID,24.111,VALID,135,VALID,1.34922,
2012-09-08, 02:02:04,VALID,1000.84,VALID,0,VALID,88.7706,VALID,0,VALID,24.1305,VALID,140,VALID,1.37383,
2012-09-08, 02:03:04,VALID,1000.81,VALID,0,VALID,88.4883,VALID,0,VALID,24.1696,VALID,139,VALID,1.37578,
2012-09-08, 02:04:04,VALID,1000.82,VALID,0,VALID,88.1755,VALID,0,VALID,24.2086,VALID,144,VALID,1.64922,
2012-09-08, 02:05:04,VALID,1000.81,VALID,0,VALID,88.0458,VALID,0,VALID,24.1872,VALID,136,VALID,1.3207,
2012-09-08, 02:06:04,VALID,1000.81,VALID,0,VALID,88.0153,VALID,0,VALID,24.2086,VALID,135,VALID,1.52383,
2012-09-08, 02:07:04,VALID,1000.81,VALID,0,VALID,87.9771,VALID,0,VALID,24.1872,VALID,142,VALID,1.53281,
2012-09-08, 02:08:04,VALID,1000.81,VALID,0,VALID,87.9237,VALID,0,VALID,24.2086,VALID,137,VALID,1.55469,
2012-09-08, 02:09:04,VALID,1000.81,VALID,0,VALID,87.8703,VALID,0,VALID,24.2086,VALID,133,VALID,1.08477,
2012-09-08, 02:10:04,VALID,1000.82,VALID,0,VALID,87.8703,VALID,0,VALID,24.2086,VALID,142,VALID,1.28594,
2012-09-08, 02:11:04,VALID,1000.83,VALID,0,VALID,87.8246,VALID,0,VALID,24.1872,VALID,145,VALID,1.15391,
2012-09-08, 02:12:04,VALID,1000.84,VALID,0,VALID,87.7559,VALID,0,VALID,24.2086,VALID,138,VALID,1.01992,
2012-09-08, 02:13:04,VALID,1000.87,VALID,0,VALID,87.7254,VALID,0,VALID,24.2067,VALID,138,VALID,0.711719,
2012-09-08, 02:14:04,VALID,1000.89,VALID,0,VALID,87.6491,VALID,0,VALID,24.2086,VALID,142,VALID,0.792578,
2012-09-08, 02:15:04,VALID,1000.91,VALID,0,VALID,87.6872,VALID,0,VALID,24.1872,VALID,149,VALID,1.10508,
2012-09-08, 02:16:04,VALID,1000.91,VALID,0,VALID,87.5499,VALID,0,VALID,24.2067,VALID,148,VALID,0.808594,
2012-09-08, 02:17:04,VALID,1000.87,VALID,0,VALID,87.4583,VALID,0,VALID,24.2086,VALID,147,VALID,1.25469,
2012-09-08, 02:18:04,VALID,1000.88,VALID,0,VALID,87.3592,VALID,0,VALID,24.2281,VALID,147,VALID,0.974609,
2012-09-08, 02:19:04,VALID,1000.8,VALID,0,VALID,87.2294,VALID,0,VALID,24.2476,VALID,147,VALID,1.30742,
2012-09-08, 02:20:04,VALID,1000.8,VALID,0,VALID,87.115,VALID,0,VALID,24.2671,VALID,147,VALID,1.26523,
2012-09-08, 02:21:04,VALID,1000.79,VALID,0,VALID,86.9777,VALID,0,VALID,24.2671,VALID,136,VALID,1.51445,
2012-09-08, 02:22:04,VALID,1000.78,VALID,0,VALID,86.8556,VALID,0,VALID,24.2671,VALID,127,VALID,1.38008,
2012-09-08, 02:23:04,VALID,1000.82,VALID,0,VALID,86.8937,VALID,0,VALID,24.2476,VALID,138,VALID,1.31836,
2012-09-08, 02:24:04,VALID,1000.79,VALID,0,VALID,87.0234,VALID,0,VALID,24.2476,VALID,143,VALID,1.5457,
2012-09-08, 02:25:04,VALID,1000.83,VALID,0,VALID,87.0692,VALID,0,VALID,24.2476,VALID,145,VALID,1.57383,
2012-09-08, 02:26:04,VALID,1000.78,VALID,0,VALID,87.0234,VALID,0,VALID,24.2281,VALID,139,VALID,1.52617,
2012-09-08, 02:27:04,VALID,1000.8,VALID,0,VALID,86.97,VALID,0,VALID,24.2281,VALID,149,VALID,1.42148,
2012-09-08, 02:28:04,VALID,1000.79,VALID,0,VALID,86.8861,VALID,0,VALID,24.2281,VALID,145,VALID,1.34102,
2012-09-08, 02:29:04,VALID,1000.78,VALID,0,VALID,86.9014,VALID,0,VALID,24.2281,VALID,145,VALID,1.33711,
2012-09-08, 02:30:04,VALID,1000.76,VALID,0,VALID,86.8022,VALID,0,VALID,24.2086,VALID,148,VALID,1.21563,
2012-09-08, 02:31:04,VALID,1000.75,VALID,0,VALID,86.7793,VALID,0,VALID,24.2086,VALID,141,VALID,1.38906,
2012-09-08, 02:32:04,VALID,1000.73,VALID,0,VALID,86.7793,VALID,0,VALID,24.2281,VALID,147,VALID,0.964063,
2012-09-08, 02:33:04,VALID,1000.71,VALID,0,VALID,86.7869,VALID,0,VALID,24.2086,VALID,139,VALID,1.39023,
2012-09-08, 02:34:04,VALID,1000.7,VALID,0,VALID,86.7869,VALID,0,VALID,24.1891,VALID,151,VALID,1.27109,
2012-09-08, 02:35:04,VALID,1000.66,VALID,0,VALID,86.7488,VALID,0,VALID,24.2086,VALID,157,VALID,1.49609,
2012-09-08, 02:36:04,VALID,1000.67,VALID,0,VALID,86.7488,VALID,0,VALID,24.2086,VALID,153,VALID,1.56602,
2012-09-08, 02:37:04,VALID,1000.64,VALID,0,VALID,86.7335,VALID,0,VALID,24.2067,VALID,148,VALID,1.63281,
2012-09-08, 02:38:04,VALID,1000.64,VALID,0,VALID,86.6649,VALID,0,VALID,24.2671,VALID,150,VALID,1.53398,
2012-09-08, 02:39:05,VALID,1000.63,VALID,0,VALID,86.4665,VALID,0,VALID,24.2671,VALID,152,VALID,1.86133,
2012-09-08, 02:40:05,VALID,1000.64,VALID,0,VALID,86.3444,VALID,0,VALID,24.2866,VALID,145,VALID,1.87812,
2012-09-08, 02:41:05,VALID,1000.61,VALID,0,VALID,86.1155,VALID,0,VALID,24.2866,VALID,150,VALID,2.17266,
2012-09-08, 02:42:05,VALID,1000.63,VALID,0,VALID,86.1842,VALID,0,VALID,24.3062,VALID,141,VALID,1.4332,
2012-09-08, 02:43:05,VALID,1000.64,VALID,0,VALID,86.2834,VALID,0,VALID,24.2653,VALID,140,VALID,1.41797,
2012-09-08, 02:44:05,VALID,1000.66,VALID,0,VALID,86.4207,VALID,0,VALID,24.2476,VALID,148,VALID,1.31055,
2012-09-08, 02:45:05,VALID,1000.65,VALID,0,VALID,86.3444,VALID,0,VALID,24.2458,VALID,149,VALID,1.34453,
2012-09-08, 02:46:05,VALID,1000.66,VALID,0,VALID,86.3902,VALID,0,VALID,24.2476,VALID,147,VALID,1.0125,
2012-09-08, 02:47:05,VALID,1000.64,VALID,0,VALID,86.3902,VALID,0,VALID,24.2458,VALID,142,VALID,0.84375,
2012-09-08, 02:48:05,VALID,1000.64,VALID,0,VALID,86.3902,VALID,0,VALID,24.2263,VALID,147,VALID,1.00352,
2012-09-08, 02:49:05,VALID,1000.63,VALID,0,VALID,86.3215,VALID,0,VALID,24.2458,VALID,142,VALID,1.16797,
2012-09-08, 02:50:05,VALID,1000.61,VALID,0,VALID,86.2376,VALID,0,VALID,24.2458,VALID,130,VALID,1.21406,
2012-09-08, 02:51:05,VALID,1000.58,VALID,0,VALID,86.2071,VALID,0,VALID,24.2281,VALID,138,VALID,1.33789,
2012-09-08, 02:52:05,VALID,1000.56,VALID,0,VALID,86.0545,VALID,0,VALID,24.2281,VALID,125,VALID,1.78086,
2012-09-08, 02:53:05,VALID,1000.57,VALID,0,VALID,86.0087,VALID,0,VALID,24.2495,VALID,128,VALID,1.48906,
2012-09-08, 02:54:05,VALID,1000.55,VALID,0,VALID,86.0316,VALID,0,VALID,24.2086,VALID,130,VALID,1.60781,
2012-09-08, 02:55:05,VALID,1000.54,VALID,0,VALID,86.0392,VALID,0,VALID,24.2086,VALID,129,VALID,1.50625,
2012-09-08, 02:56:05,VALID,1000.54,VALID,0,VALID,86.1079,VALID,0,VALID,24.2299,VALID,139,VALID,1.15898,
2012-09-08, 02:57:05,VALID,1000.54,VALID,0,VALID,86.0774,VALID,0,VALID,24.2104,VALID,128,VALID,1.36094,
2012-09-08, 02:58:05,VALID,1000.5,VALID,0,VALID,86.0163,VALID,0,VALID,24.1909,VALID,132,VALID,1.54531,
2012-09-08, 02:59:05,VALID,1000.5,VALID,0,VALID,85.9477,VALID,0,VALID,24.1909,VALID,130,VALID,1.80195,
2012-09-08, 03:00:05,VALID,1000.46,VALID,0,VALID,85.9248,VALID,0,VALID,24.1696,VALID,130,VALID,1.69102,
2012-09-08, 03:01:05,VALID,1000.44,VALID,0,VALID,85.4365,VALID,0,VALID,24.2104,VALID,128,VALID,2.55078,
2012-09-08, 03:02:05,VALID,1000.44,VALID,0,VALID,85.4136,VALID,0,VALID,24.2495,VALID,123,VALID,1.58477,
2012-09-08, 03:03:05,VALID,1000.45,VALID,0,VALID,85.3602,VALID,0,VALID,24.2299,VALID,120,VALID,1.47461,
2012-09-08, 03:04:05,VALID,1000.45,VALID,0,VALID,85.4517,VALID,0,VALID,24.2086,VALID,121,VALID,1.39805,
2012-09-08, 03:05:05,VALID,1000.44,VALID,0,VALID,85.5357,VALID,0,VALID,24.1891,VALID,128,VALID,1.35586,
2012-09-08, 03:06:05,VALID,1000.47,VALID,0,VALID,85.7035,VALID,0,VALID,24.2104,VALID,120,VALID,1.64688,
2012-09-08, 03:07:05,VALID,1000.46,VALID,0,VALID,85.8409,VALID,0,VALID,24.1872,VALID,115,VALID,1.16719,
2012-09-08, 03:08:05,VALID,1000.43,VALID,0,VALID,85.9706,VALID,0,VALID,24.1677,VALID,113,VALID,1.15625,
2012-09-08, 03:09:05,VALID,1000.48,VALID,0,VALID,86.146,VALID,0,VALID,24.1287,VALID,121,VALID,0.905078,
2012-09-08, 03:10:05,VALID,1000.45,VALID,0,VALID,86.3063,VALID,0,VALID,24.0897,VALID,125,VALID,1.19062,
2012-09-08, 03:11:05,VALID,1000.43,VALID,0,VALID,86.3902,VALID,0,VALID,24.111,VALID,123,VALID,1.29609,
2012-09-08, 03:12:05,VALID,1000.45,VALID,0,VALID,86.4131,VALID,0,VALID,24.111,VALID,129,VALID,1.47969,
2012-09-08, 03:13:05,VALID,1000.44,VALID,0,VALID,86.4054,VALID,0,VALID,24.111,VALID,135,VALID,1.49688,
2012-09-08, 03:14:05,VALID,1000.43,VALID,0,VALID,86.5199,VALID,0,VALID,24.111,VALID,127,VALID,1.27813,
2012-09-08, 03:15:05,VALID,1000.49,VALID,0,VALID,86.5351,VALID,0,VALID,24.0701,VALID,132,VALID,1.49688,
2012-09-08, 03:16:05,VALID,1000.48,VALID,0,VALID,86.5351,VALID,0,VALID,24.0915,VALID,123,VALID,1.13633,
2012-09-08, 03:17:05,VALID,1000.51,VALID,0,VALID,86.6572,VALID,0,VALID,24.0915,VALID,121,VALID,1.27344,
2012-09-08, 03:18:05,VALID,1000.53,VALID,0,VALID,86.6267,VALID,0,VALID,24.0915,VALID,118,VALID,1.40977,
2012-09-08, 03:19:05,VALID,1000.53,VALID,0,VALID,86.5123,VALID,0,VALID,24.1305,VALID,123,VALID,1.39492,
2012-09-08, 03:20:05,VALID,1000.51,VALID,0,VALID,86.352,VALID,0,VALID,24.1092,VALID,117,VALID,1.85547,
2012-09-08, 03:21:05,VALID,1000.53,VALID,0,VALID,86.291,VALID,0,VALID,24.1287,VALID,121,VALID,1.12109,
2012-09-08, 03:22:05,VALID,1000.52,VALID,0,VALID,86.3139,VALID,0,VALID,24.1287,VALID,117,VALID,1.20703,
2012-09-08, 03:23:05,VALID,1000.52,VALID,0,VALID,86.1918,VALID,0,VALID,24.1482,VALID,108,VALID,1.65352,
2012-09-08, 03:24:05,VALID,1000.51,VALID,0,VALID,86.0163,VALID,0,VALID,24.1872,VALID,117,VALID,1.44961,
2012-09-08, 03:25:05,VALID,1000.5,VALID,0,VALID,86.0163,VALID,0,VALID,24.2086,VALID,101,VALID,1.41836,
2012-09-08, 03:26:05,VALID,1000.51,VALID,0,VALID,86.1003,VALID,0,VALID,24.1677,VALID,111,VALID,1.6582,
2012-09-08, 03:27:05,VALID,1000.48,VALID,0,VALID,86.0392,VALID,0,VALID,24.1872,VALID,112,VALID,1.80625,
2012-09-08, 03:28:05,VALID,1000.48,VALID,0,VALID,86.1232,VALID,0,VALID,24.1872,VALID,116,VALID,1.39375,
2012-09-08, 03:29:05,VALID,1000.47,VALID,0,VALID,86.085,VALID,0,VALID,24.1677,VALID,112,VALID,1.91172,
2012-09-08, 03:30:05,VALID,1000.44,VALID,0,VALID,86.1766,VALID,0,VALID,24.1677,VALID,109,VALID,1.55742,
2012-09-08, 03:31:05,VALID,1000.43,VALID,0,VALID,86.1918,VALID,0,VALID,24.1891,VALID,105,VALID,1.33164,
2012-09-08, 03:32:05,VALID,1000.44,VALID,0,VALID,85.9782,VALID,0,VALID,24.1482,VALID,123,VALID,1.68438,
2012-09-08, 03:33:05,VALID,1000.44,VALID,0,VALID,85.7493,VALID,0,VALID,24.1891,VALID,117,VALID,1.49609,
2012-09-08, 03:34:05,VALID,1000.45,VALID,0,VALID,85.6959,VALID,0,VALID,24.2086,VALID,115,VALID,1.39453,
2012-09-08, 03:35:05,VALID,1000.44,VALID,0,VALID,85.5738,VALID,0,VALID,24.1872,VALID,121,VALID,1.32305,
2012-09-08, 03:36:05,VALID,1000.42,VALID,0,VALID,85.528,VALID,0,VALID,24.2086,VALID,113,VALID,1.46758,
2012-09-08, 03:37:05,VALID,1000.46,VALID,0,VALID,85.6501,VALID,0,VALID,24.1677,VALID,113,VALID,1.42188,
2012-09-08, 03:38:05,VALID,1000.44,VALID,0,VALID,85.8637,VALID,0,VALID,24.1696,VALID,121,VALID,1.19414,
2012-09-08, 03:39:05,VALID,1000.43,VALID,0,VALID,86.1842,VALID,0,VALID,24.15,VALID,115,VALID,1.29062,
2012-09-08, 03:40:05,VALID,1000.41,VALID,0,VALID,86.3215,VALID,0,VALID,24.1287,VALID,117,VALID,1.74492,
2012-09-08, 03:41:05,VALID,1000.42,VALID,0,VALID,86.4207,VALID,0,VALID,24.1287,VALID,118,VALID,1.65195,
2012-09-08, 03:42:05,VALID,1000.42,VALID,0,VALID,86.4054,VALID,0,VALID,24.1092,VALID,121,VALID,1.4793,
2012-09-08, 03:43:05,VALID,1000.44,VALID,0,VALID,86.5046,VALID,0,VALID,24.111,VALID,123,VALID,1.3293,
2012-09-08, 03:44:05,VALID,1000.44,VALID,0,VALID,86.3826,VALID,0,VALID,24.0897,VALID,124,VALID,1.18008,
2012-09-08, 03:45:05,VALID,1000.42,VALID,0,VALID,86.2834,VALID,0,VALID,24.0915,VALID,131,VALID,1.075,